星链-35783(STARLINK-35783)

导读

STARLINK-35783是美国太空探索技术公司星链(Starlink)项目的卫星,于2025年10月31日发射升空,归属美国,属于低轨卫星星座组成部分。星链项目旨在为全球提供高速低延迟互联网宽带服务,这颗卫星延续了该项目部署目标,进一步扩充星座规模,增强星链服务覆盖范围与网络稳定性。

Basic Information
目录编号:
66286
目录名称:
STARLINK-35783
国际标识:
2025-247X
轨道中心:
EARTH
卫星名称:
星链-35783
卫星全名:
星链-35783(STARLINK-35783)
卫星状态:
在轨 (已飞行309 天)
发射日期:
2025-10-31 UTC
国别 :
美国 (US)
星等 :
--
Orbit Information
数据来源 国际轨道数据
星历时间: 2026-09-05T05:53:09+0800
8小时前
查看轨道信息
半长轴: 6840.839km
偏心率: 0.0001097
轨道倾角: 53.159°
近地点辐角 72.174°
升交点赤经 76.824°
平近点角 287.938°
近地点: 461.951km
远地点: 463.453km
周期: 93.848分钟
每日圈数: 15.344007
Detailed Information
固有亮度:
5
最大亮度:
2.5
卫星平台:
Starlink V1.0
覆盖范围:
全球
运营商:
太空探索技术公司
运营商所在国:
美国
制造商(研发单位):
太空探索技术公司
制造商所在国:
美国
使用方式:
暂无
Satellite Introduction
Starlink 计划是 SpaceX 推出的全球卫星互联网项目,通过发射低轨道卫星,为全球尤其是偏远地区提供高速、低延迟的互联网服务。自 2019 年起,Starlink 已部署数千颗卫星,旨在缩小全球数字鸿沟,推动互联网普及。该项目还为军事、航空等行业提供通信支持,带来广泛经济效益。
2D Orbit Map
3D Orbit Map
Orbit Altitude Analysis Chart
Orbit Inclination Analysis Chart
Orbit Comprehensive Analysis Chart
View Comprehensive Chart
Conjunction Data List
Event ID Objects TCA Miss Dist (km) Collision Risk Probability Collision Risk Index (CRI) Action
CDM_260905-182705-210206-628621
2026-09-05T
18:27:19+0000
1.192 km
极远距离
1.035053E-5 中风险 0.55
CDM_260905-062005-382906-628622
2026-09-05T
06:20:10+0000
2.570 km
极远距离
1.431949E-6 低风险 0.38
CDM_260905-224905-172506-628621
2026-09-05T
22:49:34+0000
2.900 km
极远距离
1.240704E-6 低风险 0.37
CDM_260903-070505-299106-628621
2026-09-03T
07:05:45+0000
2.991 km
极远距离
8.824544E-7 极低风险 0.34
CDM_260905-130604-974606-628621
2026-09-05T
13:06:18+0000
2.099 km
极远距离
7.426819E-7 极低风险 0.32
CDM_260906-180105-270006-628621
2026-09-06T
18:01:29+0000
2.856 km
极远距离
4.617057E-7 极低风险 0.28